This is the latest recevied weather packets stored in our database for station/object W3BRL. If no packets are shown the sender has not sent any weather packets the latest 1 day(s).
| Time | Temp. | Humidity | Pressure | Rain* | Wind** | Luminosity | Snow |
|---|---|---|---|---|---|---|---|
| 1836274685 | 21.11° C | 69% | 1018.6 hPa | 0 mm | 1.34 m/s, 355° | 0 W/m² | - |
| 1836274538 | 21.11° C | 69% | 1018.4 hPa | 0 mm | 0.89 m/s, 348° | 0 W/m² | - |
| 1836274383 | 21.11° C | 68% | 1018.4 hPa | 0 mm | 1.34 m/s, 341° | 0 W/m² | - |
| 1836274236 | 21.11° C | 69% | 1018.3 hPa | 0 mm | 1.79 m/s, 343° | 0 W/m² | - |
| 1836274081 | 21.11° C | 68% | 1018.3 hPa | 0 mm | 0.89 m/s, 340° | 0 W/m² | - |
| 1778057309 | 12.78° C | 96% | 1004.5 hPa | 3.56 mm | 0.45 m/s, 177° | 0 W/m² | - |
| 1778057006 | 12.78° C | 95% | 1004.7 hPa | 3.05 mm | 0.45 m/s, 160° | 0 W/m² | - |
| 1778056702 | 12.78° C | 95% | 1004.5 hPa | 3.05 mm | 1.34 m/s, 177° | 0 W/m² | - |
| 1778056400 | 13.33° C | 95% | 1004.6 hPa | 3.05 mm | 1.34 m/s, 170° | 0 W/m² | - |
| 1778056098 | 13.33° C | 95% | 1004.5 hPa | 3.05 mm | 1.79 m/s, 172° | 0 W/m² | - |
| 1778055794 | 13.33° C | 95% | 1004.7 hPa | 1.78 mm | 2.24 m/s, 162° | 0 W/m² | - |
| 1778055490 | 13.33° C | 95% | 1004.6 hPa | 0 mm | 1.79 m/s, 177° | 0 W/m² | - |
| 1778055188 | 13.33° C | 95% | 1004.5 hPa | 0 mm | 1.79 m/s, 166° | 0 W/m² | - |
| 1778054886 | 13.33° C | 95% | 1004.5 hPa | 0 mm | 1.34 m/s, 170° | 0 W/m² | - |
| 1778054582 | 13.33° C | 94% | 1004.4 hPa | 0 mm | 1.79 m/s, 150° | 0 W/m² | - |
| 1778054280 | 13.33° C | 94% | 1004.4 hPa | 0 mm | 1.79 m/s, 158° | 0 W/m² | - |
| 1778053977 | 13.33° C | 94% | 1004.4 hPa | 0 mm | 3.13 m/s, 137° | 0 W/m² | - |
| 1778053674 | 13.33° C | 94% | 1004.5 hPa | 0 mm | 2.24 m/s, 150° | 0 W/m² | - |
| 1778053371 | 13.33° C | 94% | 1004.4 hPa | 0 mm | 0.89 m/s, 168° | 0 W/m² | - |
| 1778053069 | 13.33° C | 94% | 1004.3 hPa | 0 mm | 1.79 m/s, 156° | 0 W/m² | - |
| 1778052766 | 13.33° C | 94% | 1004.7 hPa | 1.27 mm | 1.79 m/s, 156° | 0 W/m² | - |
| 1778052463 | 13.33° C | 93% | 1004.7 hPa | 1.27 mm | 1.79 m/s, 158° | 0 W/m² | - |
| 1778052160 | 13.33° C | 93% | 1004.8 hPa | 1.27 mm | 2.24 m/s, 159° | 0 W/m² | - |
| 1778051858 | 13.33° C | 93% | 1004.8 hPa | 0 mm | 2.24 m/s, 151° | 0 W/m² | - |
| 1778051556 | 13.33° C | 93% | 1005.1 hPa | 1.78 mm | 0.89 m/s, 176° | 0 W/m² | - |
* Rain latest hour (hover to see other rain measurements)
** Current wind speed in m/s (hover to see current wind gust speed)